Time,TemperatureF,DewpointF,PressureIn,WindDirection,WindDirectionDegrees,WindSpeedMPH,WindSpeedGustMPH,Humidity,HourlyPrecipIn,Conditions,Clouds,dailyrainin,SoftwareType,DateUTC
2013-10-04 00:32:00,61.9,55.0,29.24,SSE,157,1.0,2.0,78,0.00,,,0.00,Rainwise IP-100,2013-10-04 04:32:00,
2013-10-04 00:35:00,61.9,55.0,29.24,SE,135,0.0,2.0,79,0.00,,,0.00,Rainwise IP-100,2013-10-04 04:35:00,
2013-10-04 00:37:00,61.9,55.0,29.24,SE,135,0.0,2.0,79,0.00,,,0.00,Rainwise IP-100,2013-10-04 04:37:00,
2013-10-04 00:39:00,61.9,55.0,29.23,SE,135,0.0,1.0,79,0.00,,,0.00,Rainwise IP-100,2013-10-04 04:39:00,
2013-10-04 00:43:00,61.9,54.0,29.23,WSW,247,0.0,2.0,77,0.00,,,0.00,Rainwise IP-100,2013-10-04 04:43:00,
2013-10-04 00:44:00,61.9,54.0,29.23,WSW,247,0.0,2.0,77,0.00,,,0.00,Rainwise IP-100,2013-10-04 04:44:00,
2013-10-04 00:47:00,61.9,55.0,29.23,WSW,247,0.0,2.0,78,0.00,,,0.00,Rainwise IP-100,2013-10-04 04:47:00,
2013-10-04 00:48:00,62.2,55.0,29.23,WSW,247,0.0,2.0,78,0.00,,,0.00,Rainwise IP-100,2013-10-04 04:48:00,
2013-10-04 00:49:00,61.9,55.0,29.23,WSW,247,0.0,1.0,79,0.00,,,0.00,Rainwise IP-100,2013-10-04 04:49:00,
2013-10-04 00:50:00,61.9,56.0,29.23,WSW,247,0.0,0.0,80,0.00,,,0.00,Rainwise IP-100,2013-10-04 04:50:00,
2013-10-04 00:52:00,62.2,54.0,29.23,WSW,247,0.0,0.0,77,0.00,,,0.00,Rainwise IP-100,2013-10-04 04:52:00,
2013-10-04 00:56:00,61.9,55.0,29.23,WSW,247,0.0,0.0,79,0.00,,,0.00,Rainwise IP-100,2013-10-04 04:56:00,
2013-10-04 00:58:00,61.9,55.0,29.23,SSW,202,0.0,2.0,79,0.00,,,0.00,Rainwise IP-100,2013-10-04 04:58:00,
2013-10-04 01:03:00,61.8,54.0,29.23,SSE,157,1.0,2.0,79,0.00,,,0.00,Rainwise IP-100,2013-10-04 05:03:00,
2013-10-04 01:05:00,61.8,54.0,29.23,SSE,157,1.0,2.0,79,0.00,,,0.00,Rainwise IP-100,2013-10-04 05:05:00,
2013-10-04 01:07:00,61.9,55.0,29.23,SSE,157,0.0,2.0,79,0.00,,,0.00,Rainwise IP-100,2013-10-04 05:07:00,
2013-10-04 01:13:00,61.9,56.0,29.23,South,180,0.0,2.0,80,0.00,,,0.00,Rainwise IP-100,2013-10-04 05:13:00,
2013-10-04 01:17:00,61.9,56.0,29.23,South,180,1.0,2.0,80,0.00,,,0.00,Rainwise IP-100,2013-10-04 05:17:00,
2013-10-04 01:18:00,62.0,56.0,29.23,South,180,1.0,2.0,81,0.00,,,0.00,Rainwise IP-100,2013-10-04 05:18:00,
2013-10-04 01:25:00,61.7,56.0,29.23,South,180,0.0,0.0,82,0.00,,,0.00,Rainwise IP-100,2013-10-04 05:25:00,
2013-10-04 01:27:00,61.9,56.0,29.23,NNW,337,1.0,2.0,82,0.00,,,0.00,Rainwise IP-100,2013-10-04 05:27:00,
2013-10-04 01:32:00,61.7,56.0,29.23,NNW,337,0.0,2.0,83,0.00,,,0.00,Rainwise IP-100,2013-10-04 05:32:00,
2013-10-04 01:37:00,61.4,57.0,29.23,NNW,337,0.0,0.0,85,0.06,,,0.01,Rainwise IP-100,2013-10-04 05:37:00,
2013-10-04 01:42:00,61.2,57.0,29.23,NW,315,0.0,1.0,87,0.06,,,0.01,Rainwise IP-100,2013-10-04 05:42:00,
2013-10-04 01:47:00,61.1,57.0,29.23,South,180,1.0,3.0,89,0.00,,,0.01,Rainwise IP-100,2013-10-04 05:47:00,
2013-10-04 01:52:00,60.9,58.0,29.23,South,180,2.0,2.0,90,0.00,,,0.01,Rainwise IP-100,2013-10-04 05:52:00,
2013-10-04 01:57:00,60.8,57.0,29.23,South,180,0.0,2.0,90,0.00,,,0.01,Rainwise IP-100,2013-10-04 05:57:00,
2013-10-04 02:02:00,60.7,57.0,29.23,South,180,0.0,0.0,91,0.00,,,0.01,Rainwise IP-100,2013-10-04 06:02:00,
2013-10-04 02:07:00,60.8,57.0,29.23,South,180,2.0,2.0,91,0.00,,,0.01,Rainwise IP-100,2013-10-04 06:07:00,
2013-10-04 02:12:00,60.8,57.0,29.23,South,180,2.0,2.0,91,0.00,,,0.01,Rainwise IP-100,2013-10-04 06:12:00,
2013-10-04 02:17:00,60.7,58.0,29.22,South,180,2.0,2.0,93,0.00,,,0.01,Rainwise IP-100,2013-10-04 06:17:00,
2013-10-04 02:22:00,60.6,59.0,29.23,South,180,0.0,2.0,94,0.00,,,0.01,Rainwise IP-100,2013-10-04 06:22:00,
2013-10-04 02:27:00,60.5,59.0,29.22,South,180,0.0,0.0,94,0.00,,,0.01,Rainwise IP-100,2013-10-04 06:27:00,
2013-10-04 02:32:00,60.4,59.0,29.22,South,180,2.0,2.0,94,0.00,,,0.01,Rainwise IP-100,2013-10-04 06:32:00,
2013-10-04 02:37:00,60.3,57.0,29.22,SW,225,2.0,2.0,92,0.00,,,0.01,Rainwise IP-100,2013-10-04 06:37:00,
2013-10-04 02:42:00,60.4,58.0,29.22,SW,225,2.0,2.0,93,0.00,,,0.01,Rainwise IP-100,2013-10-04 06:42:00,
2013-10-04 02:47:00,60.5,59.0,29.22,SW,225,2.0,2.0,94,0.00,,,0.01,Rainwise IP-100,2013-10-04 06:47:00,
2013-10-04 02:52:00,60.5,59.0,29.22,SW,225,1.0,2.0,94,0.00,,,0.01,Rainwise IP-100,2013-10-04 06:52:00,
2013-10-04 02:57:00,60.6,59.0,29.21,SW,225,1.0,3.0,94,0.00,,,0.01,Rainwise IP-100,2013-10-04 06:57:00,
2013-10-04 03:02:00,60.7,59.0,29.21,SW,225,1.0,2.0,94,0.00,,,0.01,Rainwise IP-100,2013-10-04 07:02:00,
2013-10-04 03:07:00,60.8,59.0,29.21,SW,225,2.0,2.0,94,0.00,,,0.01,Rainwise IP-100,2013-10-04 07:07:00,
2013-10-04 03:12:00,60.7,59.0,29.21,SW,225,1.0,2.0,95,0.06,,,0.02,Rainwise IP-100,2013-10-04 07:12:00,
2013-10-04 03:17:00,60.8,59.0,29.21,SW,225,2.0,2.0,95,0.06,,,0.02,Rainwise IP-100,2013-10-04 07:17:00,
2013-10-04 03:22:00,60.8,59.0,29.21,SW,225,0.0,2.0,95,0.00,,,0.02,Rainwise IP-100,2013-10-04 07:22:00,
2013-10-04 03:27:00,60.7,59.0,29.21,SW,225,0.0,0.0,96,0.00,,,0.02,Rainwise IP-100,2013-10-04 07:27:00,
2013-10-04 03:32:00,60.6,59.0,29.20,SW,225,0.0,0.0,96,0.00,,,0.02,Rainwise IP-100,2013-10-04 07:32:00,
2013-10-04 03:37:00,61.2,60.0,29.20,SW,225,2.0,2.0,96,0.00,,,0.02,Rainwise IP-100,2013-10-04 07:37:00,
2013-10-04 03:42:00,61.4,60.0,29.20,SW,225,0.0,2.0,96,0.00,,,0.02,Rainwise IP-100,2013-10-04 07:42:00,
2013-10-04 03:47:00,61.5,60.0,29.21,SW,225,0.0,1.0,97,0.00,,,0.02,Rainwise IP-100,2013-10-04 07:47:00,
2013-10-04 03:52:00,61.5,60.0,29.21,SW,225,0.0,0.0,96,0.00,,,0.02,Rainwise IP-100,2013-10-04 07:52:00,
2013-10-04 03:57:00,61.5,60.0,29.21,SW,225,0.0,0.0,96,0.00,,,0.02,Rainwise IP-100,2013-10-04 07:57:00,
2013-10-04 04:02:00,61.6,60.0,29.21,SW,225,0.0,0.0,96,0.00,,,0.02,Rainwise IP-100,2013-10-04 08:02:00,
2013-10-04 04:07:00,61.7,60.0,29.21,WSW,247,0.0,2.0,96,0.00,,,0.02,Rainwise IP-100,2013-10-04 08:07:00,
2013-10-04 04:12:00,62.1,61.0,29.21,NW,315,1.0,2.0,97,0.00,,,0.02,Rainwise IP-100,2013-10-04 08:12:00,
2013-10-04 04:17:00,61.9,61.0,29.21,NW,315,0.0,2.0,96,0.00,,,0.02,Rainwise IP-100,2013-10-04 08:17:00,
2013-10-04 04:22:00,61.5,60.0,29.21,SSW,202,1.0,0.0,95,0.00,,,0.02,Rainwise IP-100,2013-10-04 08:22:00,
2013-10-04 04:27:00,61.4,60.0,29.21,SSW,202,2.0,2.0,94,0.00,,,0.02,Rainwise IP-100,2013-10-04 08:27:00,
2013-10-04 04:32:00,61.9,61.0,29.21,SSW,202,2.0,2.0,96,0.00,,,0.02,Rainwise IP-100,2013-10-04 08:32:00,
2013-10-04 04:37:00,62.5,61.0,29.21,South,180,1.0,4.0,97,0.00,,,0.02,Rainwise IP-100,2013-10-04 08:37:00,
2013-10-04 04:42:00,61.9,60.0,29.21,NE,45,2.0,3.0,94,0.00,,,0.02,Rainwise IP-100,2013-10-04 08:42:00,
2013-10-04 04:47:00,61.7,60.0,29.21,NE,45,1.0,2.0,95,0.00,,,0.02,Rainwise IP-100,2013-10-04 08:47:00,
2013-10-04 04:52:00,61.8,60.0,29.21,NE,45,0.0,2.0,96,0.00,,,0.02,Rainwise IP-100,2013-10-04 08:52:00,
2013-10-04 04:57:00,61.8,60.0,29.21,NE,45,0.0,0.0,96,0.00,,,0.02,Rainwise IP-100,2013-10-04 08:57:00,
2013-10-04 05:02:00,62.0,61.0,29.21,NE,45,0.0,0.0,97,0.00,,,0.02,Rainwise IP-100,2013-10-04 09:02:00,
2013-10-04 05:07:00,62.4,62.0,29.21,SW,225,0.0,2.0,98,0.00,,,0.02,Rainwise IP-100,2013-10-04 09:07:00,
2013-10-04 05:12:00,63.1,62.0,29.21,SW,225,0.0,2.0,98,0.00,,,0.02,Rainwise IP-100,2013-10-04 09:12:00,
2013-10-04 05:17:00,63.5,63.0,29.21,South,180,1.0,2.0,98,0.00,,,0.02,Rainwise IP-100,2013-10-04 09:17:00,
2013-10-04 05:22:00,63.7,63.0,29.21,SE,135,1.0,2.0,98,0.00,,,0.02,Rainwise IP-100,2013-10-04 09:22:00,
2013-10-04 05:27:00,64.1,63.0,29.21,SE,135,1.0,4.0,98,0.00,,,0.02,Rainwise IP-100,2013-10-04 09:27:00,
2013-10-04 05:32:00,63.9,63.0,29.21,ESE,112,0.0,2.0,98,0.00,,,0.02,Rainwise IP-100,2013-10-04 09:32:00,
2013-10-04 05:37:00,63.3,62.0,29.21,ESE,112,0.0,2.0,97,0.00,,,0.02,Rainwise IP-100,2013-10-04 09:37:00,
2013-10-04 05:42:00,63.1,62.0,29.21,ESE,112,0.0,1.0,97,0.00,,,0.02,Rainwise IP-100,2013-10-04 09:42:00,
2013-10-04 05:47:00,63.8,63.0,29.21,SSE,157,2.0,2.0,98,0.00,,,0.02,Rainwise IP-100,2013-10-04 09:47:00,
2013-10-04 05:52:00,64.2,63.0,29.22,SSW,202,1.0,3.0,98,0.00,,,0.02,Rainwise IP-100,2013-10-04 09:52:00,
2013-10-04 05:57:00,64.4,64.0,29.22,SSW,202,1.0,4.0,98,0.00,,,0.02,Rainwise IP-100,2013-10-04 09:57:00,
2013-10-04 06:02:00,64.7,64.0,29.22,SW,225,2.0,5.0,98,0.00,,,0.02,Rainwise IP-100,2013-10-04 10:02:00,
2013-10-04 06:07:00,64.9,64.0,29.22,SW,225,3.0,5.0,98,0.00,,,0.02,Rainwise IP-100,2013-10-04 10:07:00,
2013-10-04 06:12:00,65.0,64.0,29.23,SSW,202,2.0,5.0,97,0.00,,,0.03,Rainwise IP-100,2013-10-04 10:12:00,
2013-10-04 06:17:00,65.1,64.0,29.22,SSW,202,0.0,5.0,97,0.06,,,0.03,Rainwise IP-100,2013-10-04 10:17:00,
2013-10-04 06:22:00,65.1,64.0,29.23,SW,225,2.0,4.0,98,0.12,,,0.04,Rainwise IP-100,2013-10-04 10:22:00,
2013-10-04 06:27:00,65.3,64.0,29.23,SW,225,2.0,5.0,98,0.06,,,0.05,Rainwise IP-100,2013-10-04 10:27:00,
2013-10-04 06:32:00,65.3,64.0,29.23,SSE,157,2.0,4.0,98,0.12,,,0.06,Rainwise IP-100,2013-10-04 10:32:00,
2013-10-04 06:37:00,65.3,64.0,29.22,SW,225,3.0,4.0,98,0.12,,,0.06,Rainwise IP-100,2013-10-04 10:37:00,
2013-10-04 06:42:00,64.9,64.0,29.23,North,360,4.0,4.0,98,0.00,,,0.06,Rainwise IP-100,2013-10-04 10:42:00,
2013-10-04 06:47:00,63.2,62.0,29.23,North,360,2.0,5.0,96,0.00,,,0.06,Rainwise IP-100,2013-10-04 10:47:00,
2013-10-04 06:52:00,62.8,61.0,29.23,North,360,0.0,4.0,97,0.00,,,0.06,Rainwise IP-100,2013-10-04 10:52:00,
2013-10-04 06:57:00,62.3,61.0,29.23,North,360,0.0,0.0,98,0.00,,,0.06,Rainwise IP-100,2013-10-04 10:57:00,
2013-10-04 07:02:00,61.9,61.0,29.23,North,360,2.0,2.0,98,0.00,,,0.06,Rainwise IP-100,2013-10-04 11:02:00,
2013-10-04 07:07:00,61.6,61.0,29.23,North,360,1.0,2.0,98,0.00,,,0.06,Rainwise IP-100,2013-10-04 11:07:00,
2013-10-04 07:12:00,61.3,60.0,29.22,North,360,2.0,2.0,98,0.00,,,0.06,Rainwise IP-100,2013-10-04 11:12:00,
2013-10-04 07:17:00,61.0,60.0,29.23,North,360,0.0,2.0,98,0.00,,,0.06,Rainwise IP-100,2013-10-04 11:17:00,
2013-10-04 07:22:00,61.1,60.0,29.23,WSW,247,1.0,2.0,98,0.00,,,0.06,Rainwise IP-100,2013-10-04 11:22:00,
2013-10-04 07:27:00,61.1,60.0,29.23,WSW,247,2.0,2.0,98,0.00,,,0.06,Rainwise IP-100,2013-10-04 11:27:00,
2013-10-04 07:32:00,61.3,60.0,29.23,West,270,1.0,2.0,98,0.00,,,0.06,Rainwise IP-100,2013-10-04 11:32:00,
2013-10-04 07:37:00,61.5,61.0,29.23,West,270,0.0,2.0,98,0.00,,,0.06,Rainwise IP-100,2013-10-04 11:37:00,
2013-10-04 07:42:00,61.6,61.0,29.23,WNW,292,0.0,0.0,98,0.00,,,0.06,Rainwise IP-100,2013-10-04 11:42:00,
2013-10-04 07:47:00,61.6,61.0,29.23,WNW,292,0.0,0.0,98,0.00,,,0.06,Rainwise IP-100,2013-10-04 11:47:00,
2013-10-04 07:52:00,61.7,61.0,29.23,WNW,292,2.0,2.0,98,0.00,,,0.06,Rainwise IP-100,2013-10-04 11:52:00,
2013-10-04 07:57:00,62.2,61.0,29.24,NW,315,1.0,2.0,98,0.00,,,0.06,Rainwise IP-100,2013-10-04 11:57:00,
2013-10-04 08:02:00,62.3,61.0,29.24,NW,315,2.0,2.0,98,0.00,,,0.06,Rainwise IP-100,2013-10-04 12:02:00,
2013-10-04 08:07:00,62.5,62.0,29.24,NW,315,0.0,2.0,98,0.00,,,0.06,Rainwise IP-100,2013-10-04 12:07:00,
2013-10-04 08:12:00,62.7,62.0,29.24,NW,315,0.0,1.0,98,0.00,,,0.06,Rainwise IP-100,2013-10-04 12:12:00,
2013-10-04 08:17:00,62.9,62.0,29.25,NW,315,0.0,0.0,98,0.00,,,0.06,Rainwise IP-100,2013-10-04 12:17:00,
2013-10-04 08:22:00,63.2,62.0,29.25,NW,315,2.0,2.0,98,0.00,,,0.06,Rainwise IP-100,2013-10-04 12:22:00,
2013-10-04 08:27:00,63.4,63.0,29.25,NW,315,0.0,2.0,98,0.00,,,0.06,Rainwise IP-100,2013-10-04 12:27:00,
2013-10-04 08:32:00,63.7,63.0,29.25,NW,315,0.0,2.0,98,0.00,,,0.06,Rainwise IP-100,2013-10-04 12:32:00,
2013-10-04 08:37:00,63.7,63.0,29.25,NW,315,0.0,0.0,98,0.00,,,0.06,Rainwise IP-100,2013-10-04 12:37:00,
2013-10-04 08:42:00,63.9,63.0,29.25,NW,315,0.0,0.0,98,0.00,,,0.06,Rainwise IP-100,2013-10-04 12:42:00,
2013-10-04 08:47:00,64.0,63.0,29.26,South,180,2.0,2.0,98,0.00,,,0.06,Rainwise IP-100,2013-10-04 12:47:00,
2013-10-04 08:52:00,64.3,63.0,29.26,South,180,1.0,2.0,98,0.00,,,0.06,Rainwise IP-100,2013-10-04 12:52:00,
2013-10-04 08:57:00,64.7,64.0,29.26,South,180,0.0,2.0,98,0.00,,,0.06,Rainwise IP-100,2013-10-04 12:57:00,
2013-10-04 09:02:00,64.9,64.0,29.26,SE,135,0.0,1.0,98,0.00,,,0.06,Rainwise IP-100,2013-10-04 13:02:00,
2013-10-04 09:07:00,64.8,64.0,29.26,East,90,0.0,2.0,98,0.00,,,0.06,Rainwise IP-100,2013-10-04 13:07:00,
2013-10-04 09:12:00,64.8,64.0,29.25,East,90,1.0,1.0,98,0.00,,,0.06,Rainwise IP-100,2013-10-04 13:12:00,
2013-10-04 09:17:00,64.8,64.0,29.25,ESE,112,1.0,2.0,98,0.00,,,0.06,Rainwise IP-100,2013-10-04 13:17:00,
2013-10-04 09:22:00,65.0,64.0,29.25,ESE,112,2.0,2.0,98,0.00,,,0.06,Rainwise IP-100,2013-10-04 13:22:00,
2013-10-04 09:27:00,65.3,64.0,29.25,SE,135,2.0,3.0,98,0.00,,,0.06,Rainwise IP-100,2013-10-04 13:27:00,
2013-10-04 09:32:00,65.7,65.0,29.25,East,90,1.0,3.0,98,0.00,,,0.06,Rainwise IP-100,2013-10-04 13:32:00,
2013-10-04 09:37:00,65.7,65.0,29.25,East,90,1.0,2.0,98,0.00,,,0.06,Rainwise IP-100,2013-10-04 13:37:00,
2013-10-04 09:42:00,66.0,65.0,29.26,East,90,0.0,1.0,99,0.00,,,0.06,Rainwise IP-100,2013-10-04 13:42:00,
2013-10-04 09:47:00,66.1,65.0,29.26,SE,135,1.0,2.0,99,0.00,,,0.06,Rainwise IP-100,2013-10-04 13:47:00,
2013-10-04 09:52:00,66.3,66.0,29.26,SSE,157,1.0,3.0,99,0.00,,,0.06,Rainwise IP-100,2013-10-04 13:52:00,
2013-10-04 09:57:00,66.2,66.0,29.26,SE,135,2.0,4.0,99,0.00,,,0.06,Rainwise IP-100,2013-10-04 13:57:00,
2013-10-04 10:02:00,66.5,66.0,29.26,South,180,1.0,2.0,99,0.00,,,0.06,Rainwise IP-100,2013-10-04 14:02:00,
2013-10-04 10:07:00,66.8,66.0,29.25,SE,135,1.0,2.0,99,0.00,,,0.06,Rainwise IP-100,2013-10-04 14:07:00,
2013-10-04 10:12:00,67.3,66.0,29.26,SE,135,2.0,2.0,99,0.00,,,0.06,Rainwise IP-100,2013-10-04 14:12:00,
2013-10-04 10:17:00,67.9,67.0,29.25,SE,135,2.0,4.0,99,0.00,,,0.06,Rainwise IP-100,2013-10-04 14:17:00,
2013-10-04 10:22:00,68.4,68.0,29.26,South,180,2.0,4.0,99,0.00,,,0.06,Rainwise IP-100,2013-10-04 14:22:00,
2013-10-04 10:27:00,68.9,68.0,29.25,South,180,2.0,5.0,97,0.00,,,0.06,Rainwise IP-100,2013-10-04 14:27:00,
2013-10-04 10:32:00,69.4,67.0,29.26,SSE,157,3.0,5.0,94,0.00,,,0.06,Rainwise IP-100,2013-10-04 14:32:00,
2013-10-04 10:37:00,69.8,67.0,29.25,SE,135,4.0,6.0,93,0.00,,,0.06,Rainwise IP-100,2013-10-04 14:37:00,
2013-10-04 10:42:00,70.1,68.0,29.25,ESE,112,2.0,6.0,94,0.00,,,0.06,Rainwise IP-100,2013-10-04 14:42:00,
2013-10-04 10:47:00,70.1,68.0,29.25,NE,45,2.0,3.0,94,0.00,,,0.06,Rainwise IP-100,2013-10-04 14:47:00,
2013-10-04 10:52:00,69.9,68.0,29.25,NE,45,2.0,2.0,93,0.00,,,0.06,Rainwise IP-100,2013-10-04 14:52:00,
2013-10-04 10:57:00,69.9,68.0,29.25,ESE,112,0.0,2.0,94,0.00,,,0.06,Rainwise IP-100,2013-10-04 14:57:00,
2013-10-04 11:02:00,70.1,68.0,29.25,SE,135,0.0,2.0,94,0.00,,,0.06,Rainwise IP-100,2013-10-04 15:02:00,
2013-10-04 11:07:00,70.3,68.0,29.25,SE,135,0.0,0.0,94,0.00,,,0.06,Rainwise IP-100,2013-10-04 15:07:00,
2013-10-04 11:12:00,70.3,68.0,29.25,NE,45,1.0,2.0,93,0.00,,,0.06,Rainwise IP-100,2013-10-04 15:12:00,
2013-10-04 11:17:00,70.3,68.0,29.25,North,360,1.0,2.0,94,0.00,,,0.06,Rainwise IP-100,2013-10-04 15:17:00,
2013-10-04 11:22:00,70.4,68.0,29.25,North,360,2.0,2.0,93,0.00,,,0.06,Rainwise IP-100,2013-10-04 15:22:00,
2013-10-04 11:27:00,70.5,69.0,29.25,ENE,67,0.0,2.0,94,0.00,,,0.06,Rainwise IP-100,2013-10-04 15:27:00,
2013-10-04 11:32:00,70.0,68.0,29.25,NNE,22,1.0,2.0,94,0.00,,,0.06,Rainwise IP-100,2013-10-04 15:32:00,
2013-10-04 11:37:00,70.4,68.0,29.25,North,360,2.0,2.0,93,0.00,,,0.06,Rainwise IP-100,2013-10-04 15:37:00,
2013-10-04 11:42:00,70.9,68.0,29.24,North,360,0.0,2.0,92,0.00,,,0.06,Rainwise IP-100,2013-10-04 15:42:00,
2013-10-04 11:47:00,71.4,69.0,29.24,East,90,0.0,2.0,92,0.00,,,0.06,Rainwise IP-100,2013-10-04 15:47:00,
2013-10-04 11:52:00,71.7,68.0,29.24,NE,45,0.0,2.0,90,0.00,,,0.06,Rainwise IP-100,2013-10-04 15:52:00,
2013-10-04 11:57:00,72.2,69.0,29.24,ENE,67,1.0,2.0,89,0.00,,,0.06,Rainwise IP-100,2013-10-04 15:57:00,
2013-10-04 12:02:00,72.6,68.0,29.24,NE,45,0.0,2.0,87,0.00,,,0.06,Rainwise IP-100,2013-10-04 16:02:00,
2013-10-04 12:07:00,73.1,69.0,29.25,East,90,0.0,2.0,87,0.00,,,0.06,Rainwise IP-100,2013-10-04 16:07:00,
2013-10-04 12:12:00,73.5,69.0,29.25,NE,45,0.0,2.0,85,0.00,,,0.06,Rainwise IP-100,2013-10-04 16:12:00,
2013-10-04 12:17:00,74.0,69.0,29.25,East,90,0.0,2.0,84,0.00,,,0.06,Rainwise IP-100,2013-10-04 16:17:00,
2013-10-04 12:22:00,74.3,69.0,29.25,SE,135,1.0,2.0,84,0.00,,,0.06,Rainwise IP-100,2013-10-04 16:22:00,
2013-10-04 12:27:00,74.2,67.0,29.25,South,180,2.0,6.0,79,0.00,,,0.06,Rainwise IP-100,2013-10-04 16:27:00,
2013-10-04 12:32:00,74.2,67.0,29.25,WNW,292,6.0,6.0,78,0.00,,,0.06,Rainwise IP-100,2013-10-04 16:32:00,
2013-10-04 12:37:00,74.4,67.0,29.25,West,270,1.0,6.0,79,0.00,,,0.06,Rainwise IP-100,2013-10-04 16:37:00,
2013-10-04 12:42:00,74.7,67.0,29.25,WNW,292,0.0,3.0,78,0.00,,,0.06,Rainwise IP-100,2013-10-04 16:42:00,
2013-10-04 12:47:00,74.9,67.0,29.25,SW,225,1.0,3.0,76,0.00,,,0.06,Rainwise IP-100,2013-10-04 16:47:00,
2013-10-04 12:52:00,75.5,67.0,29.25,SE,135,2.0,2.0,76,0.00,,,0.06,Rainwise IP-100,2013-10-04 16:52:00,
2013-10-04 12:57:00,75.9,67.0,29.25,East,90,4.0,6.0,76,0.00,,,0.06,Rainwise IP-100,2013-10-04 16:57:00,
2013-10-04 13:02:00,75.1,67.0,29.25,SE,135,2.0,5.0,76,0.00,,,0.06,Rainwise IP-100,2013-10-04 17:02:00,
2013-10-04 13:07:00,75.3,66.0,29.25,NE,45,2.0,4.0,75,0.00,,,0.06,Rainwise IP-100,2013-10-04 17:07:00,
2013-10-04 13:12:00,76.0,67.0,29.24,East,90,3.0,5.0,76,0.00,,,0.06,Rainwise IP-100,2013-10-04 17:12:00,
2013-10-04 13:17:00,76.5,66.0,29.24,NE,45,4.0,7.0,72,0.00,,,0.06,Rainwise IP-100,2013-10-04 17:17:00,
2013-10-04 13:22:00,77.3,69.0,29.24,NNW,337,6.0,6.0,75,0.00,,,0.06,Rainwise IP-100,2013-10-04 17:22:00,
2013-10-04 13:27:00,76.9,68.0,29.24,North,360,7.0,7.0,73,0.00,,,0.06,Rainwise IP-100,2013-10-04 17:27:00,
2013-10-04 13:32:00,76.3,68.0,29.25,NNW,337,4.0,7.0,77,0.00,,,0.06,Rainwise IP-100,2013-10-04 17:32:00,
2013-10-04 13:37:00,75.4,67.0,29.24,North,360,4.0,6.0,75,0.00,,,0.06,Rainwise IP-100,2013-10-04 17:37:00,
2013-10-04 14:02:00,76.7,66.0,29.23,NNE,22,6.0,7.0,71,0.00,,,0.06,Rainwise IP-100,2013-10-04 18:02:00,
2013-10-04 14:07:00,76.2,66.0,29.23,NE,45,7.0,8.0,73,0.00,,,0.06,Rainwise IP-100,2013-10-04 18:07:00,
2013-10-04 14:12:00,74.8,68.0,29.23,North,360,4.0,10.0,79,0.00,,,0.06,Rainwise IP-100,2013-10-04 18:12:00,
2013-10-04 14:17:00,73.5,68.0,29.23,NNW,337,5.0,11.0,83,0.00,,,0.06,Rainwise IP-100,2013-10-04 18:17:00,
2013-10-04 14:22:00,72.4,68.0,29.23,NW,315,2.0,8.0,86,0.00,,,0.06,Rainwise IP-100,2013-10-04 18:22:00,
2013-10-04 14:27:00,72.1,68.0,29.23,North,360,5.0,6.0,87,0.00,,,0.06,Rainwise IP-100,2013-10-04 18:27:00,
2013-10-04 14:32:00,73.1,68.0,29.23,North,360,2.0,8.0,84,0.00,,,0.06,Rainwise IP-100,2013-10-04 18:32:00,
2013-10-04 14:37:00,74.2,69.0,29.23,NNW,337,9.0,10.0,82,0.00,,,0.06,Rainwise IP-100,2013-10-04 18:37:00,
2013-10-04 14:42:00,74.5,68.0,29.23,North,360,7.0,11.0,81,0.00,,,0.06,Rainwise IP-100,2013-10-04 18:42:00,
2013-10-04 14:47:00,73.7,68.0,29.23,North,360,11.0,11.0,83,0.00,,,0.06,Rainwise IP-100,2013-10-04 18:47:00,
2013-10-04 14:52:00,72.9,69.0,29.23,NNW,337,3.0,11.0,86,0.00,,,0.06,Rainwise IP-100,2013-10-04 18:52:00,
2013-10-04 14:57:00,72.4,68.0,29.23,North,360,6.0,10.0,86,0.00,,,0.06,Rainwise IP-100,2013-10-04 18:57:00,
2013-10-04 15:02:00,71.9,68.0,29.23,NNW,337,6.0,9.0,87,0.00,,,0.06,Rainwise IP-100,2013-10-04 19:02:00,
2013-10-04 15:08:00,71.6,68.0,29.23,North,360,6.0,9.0,88,0.00,,,0.06,Rainwise IP-100,2013-10-04 19:08:00,
2013-10-04 15:13:00,71.4,68.0,29.23,North,360,5.0,10.0,89,0.00,,,0.06,Rainwise IP-100,2013-10-04 19:13:00,
2013-10-04 15:18:00,71.3,68.0,29.23,NNW,337,5.0,9.0,89,0.00,,,0.06,Rainwise IP-100,2013-10-04 19:18:00,
2013-10-04 15:23:00,71.2,68.0,29.23,NNW,337,4.0,8.0,90,0.00,,,0.06,Rainwise IP-100,2013-10-04 19:23:00,
2013-10-04 15:27:00,70.9,67.0,29.23,NNW,337,4.0,9.0,90,0.00,,,0.06,Rainwise IP-100,2013-10-04 19:27:00,
2013-10-04 15:33:00,70.9,67.0,29.23,NNW,337,8.0,8.0,90,0.00,,,0.06,Rainwise IP-100,2013-10-04 19:33:00,
2013-10-04 15:38:00,71.0,67.0,29.23,NNW,337,5.0,9.0,90,0.00,,,0.06,Rainwise IP-100,2013-10-04 19:38:00,
2013-10-04 15:43:00,71.7,68.0,29.23,NNW,337,2.0,6.0,88,0.00,,,0.06,Rainwise IP-100,2013-10-04 19:43:00,
2013-10-04 15:48:00,72.1,67.0,29.23,NW,315,4.0,6.0,86,0.00,,,0.06,Rainwise IP-100,2013-10-04 19:48:00,
2013-10-04 15:53:00,72.1,67.0,29.23,North,360,6.0,7.0,86,0.00,,,0.06,Rainwise IP-100,2013-10-04 19:53:00,
2013-10-04 15:58:00,71.9,67.0,29.23,North,360,6.0,7.0,86,0.00,,,0.06,Rainwise IP-100,2013-10-04 19:58:00,
2013-10-04 16:03:00,71.9,68.0,29.23,NNW,337,5.0,7.0,88,0.00,,,0.06,Rainwise IP-100,2013-10-04 20:03:00,
2013-10-04 16:08:00,71.9,68.0,29.23,NNW,337,2.0,5.0,88,0.00,,,0.06,Rainwise IP-100,2013-10-04 20:08:00,
2013-10-04 16:13:00,71.4,67.0,29.23,NNW,337,6.0,6.0,88,0.00,,,0.06,Rainwise IP-100,2013-10-04 20:13:00,
2013-10-04 16:18:00,70.9,67.0,29.23,NE,45,4.0,7.0,89,0.00,,,0.06,Rainwise IP-100,2013-10-04 20:18:00,
2013-10-04 16:23:00,70.1,67.0,29.23,NNW,337,4.0,10.0,92,0.00,,,0.06,Rainwise IP-100,2013-10-04 20:23:00,
2013-10-04 16:28:00,69.7,68.0,29.23,North,360,2.0,6.0,94,0.06,,,0.07,Rainwise IP-100,2013-10-04 20:28:00,
2013-10-04 16:33:00,69.3,68.0,29.23,North,360,2.0,5.0,96,0.06,,,0.07,Rainwise IP-100,2013-10-04 20:33:00,
2013-10-04 16:38:00,69.1,67.0,29.23,North,360,4.0,5.0,96,0.00,,,0.07,Rainwise IP-100,2013-10-04 20:38:00,
2013-10-04 16:43:00,68.9,68.0,29.23,NNW,337,4.0,5.0,97,0.00,,,0.07,Rainwise IP-100,2013-10-04 20:43:00,
2013-10-04 16:48:00,68.6,67.0,29.23,NW,315,6.0,7.0,97,0.00,,,0.07,Rainwise IP-100,2013-10-04 20:48:00,
2013-10-04 16:53:00,68.6,67.0,29.23,North,360,2.0,7.0,97,0.00,,,0.07,Rainwise IP-100,2013-10-04 20:53:00,
2013-10-04 16:58:00,68.6,67.0,29.23,North,360,7.0,7.0,97,0.00,,,0.07,Rainwise IP-100,2013-10-04 20:58:00,
2013-10-04 17:03:00,68.4,67.0,29.23,North,360,4.0,7.0,97,0.00,,,0.07,Rainwise IP-100,2013-10-04 21:03:00,
2013-10-04 17:08:00,68.4,67.0,29.23,North,360,5.0,7.0,97,0.00,,,0.07,Rainwise IP-100,2013-10-04 21:08:00,
2013-10-04 17:13:00,68.1,67.0,29.23,North,360,4.0,6.0,97,0.00,,,0.07,Rainwise IP-100,2013-10-04 21:13:00,
2013-10-04 17:18:00,68.0,67.0,29.23,North,360,4.0,6.0,97,0.00,,,0.07,Rainwise IP-100,2013-10-04 21:18:00,
2013-10-04 17:23:00,68.0,67.0,29.23,North,360,4.0,4.0,98,0.00,,,0.07,Rainwise IP-100,2013-10-04 21:23:00,
2013-10-04 17:28:00,67.9,67.0,29.23,North,360,4.0,6.0,97,0.00,,,0.07,Rainwise IP-100,2013-10-04 21:28:00,
2013-10-04 17:33:00,67.7,67.0,29.23,NNW,337,6.0,6.0,98,0.00,,,0.07,Rainwise IP-100,2013-10-04 21:33:00,
2013-10-04 17:38:00,67.5,67.0,29.24,North,360,4.0,6.0,98,0.00,,,0.07,Rainwise IP-100,2013-10-04 21:38:00,
2013-10-04 17:43:00,67.4,67.0,29.24,North,360,2.0,6.0,98,0.00,,,0.07,Rainwise IP-100,2013-10-04 21:43:00,
2013-10-04 17:48:00,67.3,66.0,29.24,North,360,3.0,6.0,98,0.00,,,0.07,Rainwise IP-100,2013-10-04 21:48:00,
2013-10-04 17:53:00,67.2,66.0,29.24,North,360,1.0,6.0,98,0.00,,,0.07,Rainwise IP-100,2013-10-04 21:53:00,
2013-10-04 17:58:00,67.1,66.0,29.25,NNE,22,2.0,5.0,98,0.00,,,0.07,Rainwise IP-100,2013-10-04 21:58:00,
2013-10-04 18:03:00,67.0,66.0,29.25,NNW,337,2.0,6.0,98,0.00,,,0.07,Rainwise IP-100,2013-10-04 22:03:00,
2013-10-04 18:08:00,66.9,66.0,29.25,North,360,3.0,6.0,99,0.00,,,0.07,Rainwise IP-100,2013-10-04 22:08:00,
2013-10-04 18:13:00,66.7,66.0,29.25,North,360,3.0,7.0,99,0.00,,,0.07,Rainwise IP-100,2013-10-04 22:13:00,
2013-10-04 18:18:00,66.6,66.0,29.24,NNW,337,5.0,5.0,99,0.00,,,0.07,Rainwise IP-100,2013-10-04 22:18:00,
2013-10-04 18:23:00,66.4,66.0,29.25,NNW,337,2.0,6.0,99,0.00,,,0.07,Rainwise IP-100,2013-10-04 22:23:00,
2013-10-04 18:28:00,66.3,66.0,29.25,North,360,3.0,5.0,99,0.00,,,0.07,Rainwise IP-100,2013-10-04 22:28:00,
2013-10-04 18:33:00,66.2,66.0,29.25,NNW,337,2.0,4.0,99,0.00,,,0.07,Rainwise IP-100,2013-10-04 22:33:00,
2013-10-04 18:38:00,66.1,65.0,29.25,North,360,2.0,6.0,99,0.00,,,0.07,Rainwise IP-100,2013-10-04 22:38:00,
2013-10-04 18:43:00,66.1,65.0,29.25,NNW,337,2.0,4.0,99,0.00,,,0.07,Rainwise IP-100,2013-10-04 22:43:00,
2013-10-04 18:48:00,65.9,65.0,29.25,NNW,337,2.0,4.0,98,0.00,,,0.07,Rainwise IP-100,2013-10-04 22:48:00,
2013-10-04 18:53:00,65.9,65.0,29.25,NNW,337,1.0,4.0,98,0.00,,,0.07,Rainwise IP-100,2013-10-04 22:53:00,
2013-10-04 18:58:00,65.8,65.0,29.25,NW,315,1.0,2.0,98,0.00,,,0.07,Rainwise IP-100,2013-10-04 22:58:00,
2013-10-04 19:03:00,65.8,65.0,29.25,North,360,1.0,4.0,98,0.00,,,0.07,Rainwise IP-100,2013-10-04 23:03:00,
2013-10-04 19:08:00,65.7,65.0,29.25,NW,315,2.0,3.0,98,0.00,,,0.07,Rainwise IP-100,2013-10-04 23:08:00,
2013-10-04 19:13:00,65.7,65.0,29.25,NNW,337,1.0,2.0,98,0.00,,,0.07,Rainwise IP-100,2013-10-04 23:13:00,
2013-10-04 19:18:00,65.7,65.0,29.25,NNW,337,1.0,2.0,98,0.00,,,0.07,Rainwise IP-100,2013-10-04 23:18:00,
2013-10-04 19:23:00,65.7,65.0,29.25,NW,315,1.0,2.0,98,0.00,,,0.07,Rainwise IP-100,2013-10-04 23:23:00,
2013-10-04 19:28:00,65.6,65.0,29.25,North,360,3.0,5.0,98,0.00,,,0.07,Rainwise IP-100,2013-10-04 23:28:00,
2013-10-04 19:33:00,65.5,65.0,29.25,North,360,4.0,5.0,98,0.00,,,0.07,Rainwise IP-100,2013-10-04 23:33:00,
2013-10-04 19:38:00,65.3,64.0,29.25,NNW,337,3.0,5.0,98,0.00,,,0.07,Rainwise IP-100,2013-10-04 23:38:00,
2013-10-04 19:43:00,65.2,64.0,29.25,NNW,337,2.0,6.0,98,0.00,,,0.07,Rainwise IP-100,2013-10-04 23:43:00,
2013-10-04 19:48:00,65.1,64.0,29.25,NNW,337,3.0,4.0,98,0.00,,,0.07,Rainwise IP-100,2013-10-04 23:48:00,
2013-10-04 19:53:00,65.1,64.0,29.25,NNW,337,2.0,4.0,98,0.00,,,0.07,Rainwise IP-100,2013-10-04 23:53:00,
2013-10-04 19:58:00,65.1,64.0,29.26,NNW,337,1.0,4.0,98,0.00,,,0.07,Rainwise IP-100,2013-10-04 23:58:00,
2013-10-04 20:03:00,65.1,64.0,29.26,NW,315,2.0,2.0,98,0.00,,,0.07,Rainwise IP-100,2013-10-05 00:03:00,
2013-10-04 20:08:00,65.1,64.0,29.26,NW,315,2.0,2.0,98,0.00,,,0.07,Rainwise IP-100,2013-10-05 00:08:00,
2013-10-04 20:13:00,65.1,64.0,29.26,North,360,1.0,2.0,98,0.00,,,0.07,Rainwise IP-100,2013-10-05 00:13:00,
2013-10-04 20:18:00,64.9,64.0,29.26,NNW,337,3.0,3.0,98,0.00,,,0.07,Rainwise IP-100,2013-10-05 00:18:00,
2013-10-04 20:23:00,64.9,64.0,29.26,North,360,2.0,4.0,98,0.00,,,0.07,Rainwise IP-100,2013-10-05 00:23:00,
2013-10-04 20:28:00,64.8,64.0,29.26,North,360,2.0,5.0,98,0.00,,,0.07,Rainwise IP-100,2013-10-05 00:28:00,
2013-10-04 20:33:00,64.7,64.0,29.26,North,360,2.0,4.0,98,0.00,,,0.07,Rainwise IP-100,2013-10-05 00:33:00,
2013-10-04 20:38:00,64.6,64.0,29.26,NNW,337,2.0,4.0,98,0.00,,,0.07,Rainwise IP-100,2013-10-05 00:38:00,
2013-10-04 20:43:00,64.6,64.0,29.26,NNW,337,1.0,2.0,98,0.00,,,0.07,Rainwise IP-100,2013-10-05 00:43:00,
2013-10-04 20:48:00,64.6,64.0,29.26,NNW,337,2.0,2.0,98,0.00,,,0.07,Rainwise IP-100,2013-10-05 00:48:00,
2013-10-04 20:53:00,64.6,64.0,29.26,NNW,337,0.0,2.0,98,0.00,,,0.07,Rainwise IP-100,2013-10-05 00:53:00,
2013-10-04 20:58:00,64.6,64.0,29.26,NNW,337,0.0,2.0,98,0.00,,,0.07,Rainwise IP-100,2013-10-05 00:58:00,
2013-10-04 21:03:00,64.6,64.0,29.27,NNW,337,0.0,0.0,98,0.00,,,0.07,Rainwise IP-100,2013-10-05 01:03:00,
2013-10-04 21:08:00,64.6,64.0,29.27,NNW,337,0.0,0.0,98,0.00,,,0.07,Rainwise IP-100,2013-10-05 01:08:00,
2013-10-04 21:13:00,64.6,64.0,29.27,NNW,337,0.0,0.0,98,0.00,,,0.07,Rainwise IP-100,2013-10-05 01:13:00,
2013-10-04 21:18:00,64.6,64.0,29.27,NNW,337,0.0,0.0,98,0.00,,,0.07,Rainwise IP-100,2013-10-05 01:18:00,
2013-10-04 21:23:00,64.6,64.0,29.27,NNW,337,0.0,0.0,98,0.00,,,0.07,Rainwise IP-100,2013-10-05 01:23:00,
2013-10-04 21:28:00,64.5,64.0,29.27,NNW,337,0.0,0.0,98,0.00,,,0.07,Rainwise IP-100,2013-10-05 01:28:00,
2013-10-04 21:33:00,64.4,64.0,29.27,NNW,337,0.0,0.0,98,0.00,,,0.07,Rainwise IP-100,2013-10-05 01:33:00,
2013-10-04 21:38:00,64.4,64.0,29.27,NNW,337,1.0,2.0,98,0.00,,,0.07,Rainwise IP-100,2013-10-05 01:38:00,
2013-10-04 21:43:00,64.3,63.0,29.27,NNW,337,0.0,2.0,98,0.00,,,0.07,Rainwise IP-100,2013-10-05 01:43:00,
2013-10-04 21:48:00,64.3,63.0,29.27,NNW,337,0.0,0.0,98,0.00,,,0.07,Rainwise IP-100,2013-10-05 01:48:00,
2013-10-04 21:53:00,64.3,63.0,29.27,NNE,22,1.0,2.0,98,0.00,,,0.07,Rainwise IP-100,2013-10-05 01:53:00,
2013-10-04 21:58:00,64.3,63.0,29.27,NNE,22,0.0,2.0,98,0.00,,,0.07,Rainwise IP-100,2013-10-05 01:58:00,
2013-10-04 22:03:00,64.2,63.0,29.27,NNE,22,0.0,2.0,98,0.00,,,0.07,Rainwise IP-100,2013-10-05 02:03:00,
2013-10-04 22:08:00,64.2,63.0,29.27,NNE,22,1.0,2.0,98,0.00,,,0.07,Rainwise IP-100,2013-10-05 02:08:00,
2013-10-04 22:13:00,64.1,63.0,29.27,North,360,2.0,2.0,98,0.00,,,0.07,Rainwise IP-100,2013-10-05 02:13:00,
2013-10-04 22:18:00,63.9,63.0,29.27,NNW,337,2.0,6.0,98,0.00,,,0.07,Rainwise IP-100,2013-10-05 02:18:00,
2013-10-04 22:23:00,63.8,63.0,29.28,NNW,337,4.0,6.0,98,0.00,,,0.07,Rainwise IP-100,2013-10-05 02:23:00,
2013-10-04 22:28:00,63.7,63.0,29.28,NW,315,4.0,5.0,98,0.00,,,0.07,Rainwise IP-100,2013-10-05 02:28:00,
2013-10-04 22:33:00,63.5,63.0,29.28,North,360,2.0,6.0,98,0.00,,,0.07,Rainwise IP-100,2013-10-05 02:33:00,
2013-10-04 22:38:00,63.4,63.0,29.28,North,360,2.0,6.0,98,0.00,,,0.07,Rainwise IP-100,2013-10-05 02:38:00,
2013-10-04 22:43:00,63.3,62.0,29.28,North,360,4.0,6.0,98,0.00,,,0.07,Rainwise IP-100,2013-10-05 02:43:00,
2013-10-04 22:48:00,63.1,62.0,29.28,North,360,4.0,6.0,98,0.00,,,0.07,Rainwise IP-100,2013-10-05 02:48:00,
2013-10-04 22:53:00,62.9,62.0,29.28,North,360,7.0,7.0,98,0.00,,,0.07,Rainwise IP-100,2013-10-05 02:53:00,
2013-10-04 22:58:00,62.7,62.0,29.28,NNE,22,4.0,7.0,98,0.00,,,0.07,Rainwise IP-100,2013-10-05 02:58:00,
2013-10-04 23:03:00,62.5,62.0,29.28,North,360,4.0,7.0,98,0.00,,,0.07,Rainwise IP-100,2013-10-05 03:03:00,
2013-10-04 23:08:00,62.4,62.0,29.28,North,360,3.0,5.0,98,0.00,,,0.07,Rainwise IP-100,2013-10-05 03:08:00,
2013-10-04 23:13:00,62.3,61.0,29.28,North,360,2.0,4.0,98,0.00,,,0.07,Rainwise IP-100,2013-10-05 03:13:00,
2013-10-04 23:18:00,62.3,61.0,29.28,North,360,4.0,5.0,98,0.00,,,0.07,Rainwise IP-100,2013-10-05 03:18:00,
2013-10-04 23:23:00,62.3,61.0,29.27,North,360,2.0,4.0,98,0.00,,,0.07,Rainwise IP-100,2013-10-05 03:23:00,
2013-10-04 23:28:00,62.2,61.0,29.27,NNW,337,2.0,5.0,98,0.00,,,0.07,Rainwise IP-100,2013-10-05 03:28:00,
2013-10-04 23:33:00,62.1,61.0,29.28,North,360,4.0,5.0,98,0.00,,,0.07,Rainwise IP-100,2013-10-05 03:33:00,
2013-10-04 23:38:00,62.1,61.0,29.27,West,270,2.0,4.0,98,0.00,,,0.07,Rainwise IP-100,2013-10-05 03:38:00,
2013-10-04 23:43:00,62.1,61.0,29.28,West,270,1.0,4.0,98,0.00,,,0.07,Rainwise IP-100,2013-10-05 03:43:00,
2013-10-04 23:48:00,62.1,61.0,29.28,WNW,292,2.0,3.0,98,0.00,,,0.07,Rainwise IP-100,2013-10-05 03:48:00,
2013-10-04 23:53:00,62.1,61.0,29.28,NW,315,2.0,3.0,98,0.00,,,0.07,Rainwise IP-100,2013-10-05 03:53:00,
2013-10-04 23:58:00,62.1,61.0,29.28,NW,315,2.0,2.0,98,0.00,,,0.07,Rainwise IP-100,2013-10-05 03:58:00,